Hereford, TX

7:28 PM CDT on June 22, 2017 (GMT -0500)
Hereford Municipal

Weather History for KHRX - April, 2014

Change the Weather History Date:

Wednesday, April 23, 2014

  Actual Average (KCVN) Record (KCVN)
Temperature  
Mean Temperature 70 °F -  
Max Temperature 81 °F 73 °F 95 °F (1965)
Min Temperature 59 °F 43 °F 12 °F (1913)
Cooling Degree Days 5    
Growing Degree Days 20 (Base 50)    
Moisture  
Dew Point 37 °F    
Average Humidity 39    
Maximum Humidity 58    
Minimum Humidity 9    
Precipitation  
Precipitation 0.00 in - - ()
Sea Level Pressure  
Sea Level Pressure 29.77 in    
Wind  
Wind Speed 21 mph (SSW)    
Max Wind Speed 32 mph    
Max Gust Speed 41 mph    
Visibility 10 miles    
Events      
Averages and records for this station are not official NWS values.
T = Trace of Precipitation, MM = Missing Value Source: NWS Daily Summary

Daily Weather History Graph

Daily Weather History Graph

Search for Another Location

Airport or City:

Trip Planner

Search our weather history database for the weather conditions in past years. The results will help you decide how hot, cold, wet, or windy it might be!

Date:

Astronomy

Apr. 23, 2014 Rise Set
Actual Time 7:07 AM CDT 8:28 PM CDT
Civil Twilight 6:41 AM CDT 8:54 PM CDT
Nautical Twilight 6:09 AM CDT 9:26 PM CDT
Astronomical Twilight 5:36 AM CDT 9:59 PM CDT
Moon 3:26 AM CDT 2:52 PM CDT
Length of Visible Light 14h 13m
Length of Day
13h 20m
Waning Crescent, 34% of the Moon is Illuminated
Apr 23
Waning Crescent
Apr 29
New
May 6
First Quarter
May 14
Full
May 21
Last Quarter

Hourly Weather History & Observations

Time (CDT) Temp. Dew Point Humidity Pressure Visibility Wind Dir Wind Speed Gust Speed Precip Events Conditions
12:15 AM 65.7 °F 34.3 °F 31% 29.91 in 10.0 mi SSE 23.0 mph 28.8 mph N/A   Clear
12:35 AM 65.3 °F 34.3 °F 32% 29.91 in 10.0 mi SSE 19.6 mph 29.9 mph N/A   Clear
12:55 AM 64.6 °F 34.7 °F 33% 29.91 in 10.0 mi SSE 23.0 mph 28.8 mph N/A   Clear
1:15 AM 64.2 °F 34.7 °F 33% 29.91 in 10.0 mi SSE 17.3 mph 29.9 mph N/A   Clear
1:35 AM 62.6 °F 34.9 °F 36% 29.91 in 10.0 mi SSE 18.4 mph 23.0 mph N/A   Clear
1:55 AM 61.9 °F 35.1 °F 37% 29.90 in 10.0 mi SSE 17.3 mph - N/A   Clear
2:15 AM 61.5 °F 35.8 °F 38% 29.90 in 10.0 mi South 18.4 mph - N/A   Clear
2:35 AM 60.8 °F 36.5 °F 40% 29.89 in 10.0 mi South 16.1 mph - N/A   Clear
2:55 AM 59.9 °F 36.9 °F 42% 29.89 in 10.0 mi South 17.3 mph - N/A   Clear
3:15 AM 59.2 °F 37.6 °F 45% 29.88 in 10.0 mi South 16.1 mph - N/A   Clear
3:35 AM 59.0 °F 38.3 °F 46% 29.88 in 10.0 mi South 16.1 mph - N/A   Clear
3:55 AM 60.1 °F 39.2 °F 46% 29.88 in 10.0 mi South 19.6 mph - N/A   Clear
4:15 AM 59.9 °F 40.1 °F 48% 29.88 in 10.0 mi South 17.3 mph 23.0 mph N/A   Clear
4:35 AM 59.5 °F 41.0 °F 50% 29.88 in 10.0 mi South 15.0 mph - N/A   Clear
4:55 AM 59.2 °F 41.5 °F 52% 29.88 in 10.0 mi SSW 13.8 mph 19.6 mph N/A   Clear
5:15 AM 60.1 °F 42.4 °F 52% 29.88 in 10.0 mi SSW 15.0 mph 20.7 mph N/A   Clear
5:35 AM 59.4 °F 42.8 °F 54% 29.87 in 10.0 mi South 15.0 mph 20.7 mph N/A   Clear
5:55 AM 59.0 °F 42.8 °F 55% 29.86 in 10.0 mi South 13.8 mph - N/A   Clear
6:15 AM 59.2 °F 43.2 °F 55% 29.85 in 10.0 mi South 17.3 mph 20.7 mph N/A   Clear
6:35 AM 59.0 °F 43.3 °F 56% 29.85 in 10.0 mi South 17.3 mph - N/A   Clear
6:55 AM 59.9 °F 44.2 °F 56% 29.84 in 10.0 mi South 19.6 mph - N/A   Clear
7:15 AM 59.9 °F 44.8 °F 57% 29.84 in 10.0 mi South 19.6 mph 25.3 mph N/A   Clear
7:35 AM 60.1 °F 45.0 °F 57% 29.84 in 10.0 mi South 20.7 mph 26.5 mph N/A   Clear
7:55 AM 60.3 °F 45.5 °F 58% 29.84 in 10.0 mi South 17.3 mph 24.2 mph N/A   Scattered Clouds
8:15 AM 61.2 °F 45.9 °F 57% 29.84 in 10.0 mi South 23.0 mph 28.8 mph N/A   Scattered Clouds
8:35 AM 62.2 °F 46.4 °F 56% 29.84 in 10.0 mi South 21.9 mph 31.1 mph N/A   Scattered Clouds
8:55 AM 63.1 °F 47.3 °F 56% 29.84 in 10.0 mi South 25.3 mph 34.5 mph N/A   Clear
9:15 AM 64.4 °F 47.8 °F 55% 29.84 in 10.0 mi South 27.6 mph 35.7 mph N/A   Clear
9:35 AM 65.8 °F 48.2 °F 53% 29.84 in 10.0 mi South 27.6 mph 36.8 mph N/A   Clear
9:55 AM 67.1 °F 48.4 °F 51% 29.84 in 10.0 mi South 28.8 mph 38.0 mph N/A   Clear
10:15 AM 68.9 °F 48.6 °F 48% 29.83 in 10.0 mi South 28.8 mph 41.4 mph N/A   Clear
10:35 AM 70.3 °F 48.6 °F 46% 29.83 in 10.0 mi South 32.2 mph 41.4 mph N/A   Clear
10:55 AM 71.6 °F 48.4 °F 44% 29.83 in 10.0 mi South 28.8 mph 39.1 mph N/A   Clear
11:15 AM 72.9 °F 48.4 °F 42% 29.82 in 10.0 mi South 27.6 mph 35.7 mph N/A   Clear
11:35 AM 74.8 °F 48.4 °F 39% 29.81 in 10.0 mi South 28.8 mph 38.0 mph N/A   Clear
11:55 AM 77.0 °F 47.7 °F 35% 29.80 in 10.0 mi SSW 27.6 mph 35.7 mph N/A   Clear
12:15 PM 78.1 °F 46.2 °F 32% 29.80 in 10.0 mi SSW 27.6 mph 36.8 mph N/A   Clear
12:35 PM - - N/A% 29.79 in 10.0 mi SSW 26.5 mph 35.7 mph N/A   Clear
1:15 PM - - N/A% 29.76 in 10.0 mi SSW 21.9 mph 32.2 mph N/A   Clear
1:35 PM - - N/A% 29.75 in 10.0 mi SSW 24.2 mph 36.8 mph N/A   Clear
1:55 PM - - N/A% 29.74 in 10.0 mi SW 26.5 mph 34.5 mph N/A   Clear
2:15 PM - - N/A% 29.73 in 10.0 mi SW 29.9 mph 36.8 mph N/A   Clear
2:55 PM - - N/A% 29.71 in 10.0 mi SSW 27.6 mph 40.3 mph N/A   Clear
3:15 PM - - N/A% 29.71 in 10.0 mi SSW 24.2 mph 39.1 mph N/A   Clear
3:35 PM - - N/A% 29.70 in 10.0 mi SSW 25.3 mph 35.7 mph N/A   Clear
3:55 PM - - N/A% 29.69 in 10.0 mi SSW 24.2 mph 36.8 mph N/A   Clear
4:15 PM - - N/A% 29.67 in 10.0 mi SSW 25.3 mph 38.0 mph N/A   Clear
4:35 PM - - N/A% 29.66 in 10.0 mi SW 28.8 mph 40.3 mph N/A   Clear
4:55 PM - - N/A% 29.64 in 10.0 mi WSW 32.2 mph 41.4 mph N/A   Clear
5:15 PM - - N/A% 29.63 in 10.0 mi SW 28.8 mph 39.1 mph N/A   Clear
5:35 PM - - N/A% 29.62 in 10.0 mi SW 28.8 mph - N/A   Clear
5:55 PM - - N/A% 29.62 in 10.0 mi SSW 24.2 mph 35.7 mph N/A   Clear
6:15 PM - - N/A% 29.61 in 10.0 mi SSW 26.5 mph 35.7 mph N/A   Clear
6:35 PM - - N/A% 29.61 in 10.0 mi SSW 25.3 mph 34.5 mph N/A   Clear
6:55 PM - - N/A% 29.60 in 10.0 mi SSW 21.9 mph 35.7 mph N/A   Clear
7:15 PM - - N/A% 29.60 in 10.0 mi SSW 25.3 mph 33.4 mph N/A   Clear
7:35 PM - - N/A% 29.60 in 10.0 mi SSW 25.3 mph 33.4 mph N/A   Clear
7:55 PM - - N/A% 29.60 in 10.0 mi SSW 20.7 mph 35.7 mph N/A   Clear
8:15 PM 81.0 °F 16.7 °F 9% 29.60 in 10.0 mi SSW 19.6 mph 27.6 mph N/A   Clear
8:35 PM 78.8 °F 17.4 °F 10% 29.61 in 10.0 mi SSW 19.6 mph - N/A   Clear
8:55 PM 77.0 °F 17.6 °F 11% 29.62 in 7.0 mi SSW 17.3 mph 21.9 mph N/A   Clear
9:15 PM 76.1 °F 17.4 °F 11% 29.62 in 10.0 mi SSW 20.7 mph 26.5 mph N/A   Clear
9:55 PM 73.6 °F 17.4 °F 12% 29.64 in 10.0 mi SSW 18.4 mph 23.0 mph N/A   Clear
10:15 PM 71.6 °F 17.6 °F 13% 29.65 in 10.0 mi SSW 13.8 mph - N/A   Clear
10:35 PM 70.0 °F 17.8 °F 14% 29.65 in 10.0 mi SSW 12.7 mph - N/A   Clear
10:55 PM 70.2 °F 17.6 °F 14% 29.68 in 10.0 mi WSW 18.4 mph - N/A   Clear
11:15 PM 67.1 °F 17.6 °F 15% 29.69 in 10.0 mi West 13.8 mph - N/A   Clear
11:35 PM 66.6 °F 20.1 °F 17% 29.70 in 10.0 mi West 11.5 mph - N/A   Clear
11:55 PM 61.7 °F 21.0 °F 21% 29.71 in 10.0 mi West 9.2 mph - N/A   Clear